Location: Limerick
(52.6650°N, 8.6230°W)
Time: 19:48:27
(UTC+01:00)

ISS - Pass Details

Date: 19 July 2017
Orbit: 400 x 408 km, 51.6° (Epoch: 21 July)

Event Time Altitude Azimuth Distance (km) Brightness Sun altitude
Exits shadow 04:16:12 - 273° (W) 2,325 -0.3 -9.1°
Rises 04:16:13 0° 273° (W) 2,315 -0.3 -9.1°
Reaches altitude 10° 04:18:18 10° 271° (W) 1,456 -1.4 -9.0°
Maximum altitude 04:21:33 70° 188° (S) 433 -3.9 -8.7°
Drops below altitude 10° 04:24:48 10° 105° (ESE) 1,458 -0.7 -8.4°
Sets 04:26:53 0° 103° (ESE) 2,318 0.4 -8.2°
